Tracking 19854 objects as of 21-Sep-2019
HD Live streaming from Space Station
objects crossing your sky now

ARIANE 3 DEB

Track ARIANE 3 DEB now!


NORAD ID: 20674
Int'l Code: 1984-081E
Perigee: 744.8 km
Apogee: 33,564.0 km
Inclination: 7.1 °
Period: 598.5 minutes
Semi major axis: 23525 km
RCS: 2.5198 m2 (large)
Launch date: August 4, 1984
Source: France (FR)
Launch site: FRENCH GUIANA (FRGUI)

Note: This is SATELLITE DEBRIS
aabbcc
Your satellite tracking list
Your tracking list is empty




NASA's NSSDC Master Catalog

Two Line Element Set (TLE):
1 20674U 84081E   19262.64191087 -.00000174 +00000-0 -27110-2 0  9993
2 20674 007.0780 287.0722 6975288 115.9155 297.3280 02.40601082238178
Source of the keplerian elements: AFSPC